[[{"header":{"parameterUnit":"m.s-1","parameterCategory":1,"la1":30.2991,"la2":30.254,"lo1":-89.0895,"lo2":-89.0444,"dy":0.0017,"dx":0.0017,"nx":28,"ny":28,"refTime":"2025-11-22T09:00:00:Z","depth":0,"parameterNumber":2,"parameterNumberName":"U-component_of_WINDS"},"data":[0,0,0,0,0,0,0,0,0,0,0,0,0,0,0,0,0,0,0,0,0,0,0,0,0,0,0,0,0,0,0,0,0,0,0,0,0,0,0,0,0,0,0,0,0,0,0,0,0,0,0,0,0,0,0,0,0,0,1.5697,1.5697,0,1.5747,1.5747,1.5748,1.5724,1.5723,1.5722,1.5721,1.5774,1.5777,1.5779,0,0,0,0,0,0,0,0,0,0,0,0,0,1.5585,1.5587,1.5697,1.5697,1.5698,1.5747,1.5747,1.5748,1.5725,1.5723,1.5722,1.572,1.5773,1.5777,1.578,0,0,0,0,0,0,0,0,0,0,0,0,0,1.5634,1.5588,1.5697,1.5692,1.5692,1.5747,1.5747,1.5748,1.5725,1.5723,1.5721,1.5719,1.5772,1.5776,1.578,1.5842,0,0,1.5792,1.5794,0,0,0,0,0,0,0,0,1.5631,1.5638,1.5692,1.5693,1.5693,1.5727,1.5727,1.578,1.5725,1.5713,1.5721,1.5718,1.576,1.5765,1.5779,1.5845,1.5847,1.5792,1.5795,1.5796,1.5798,0,0,0,0,0,0,0,1.5628,1.5636,1.5717,1.5693,1.5693,1.5689,1.5694,1.5737,1.5747,1.5714,1.5712,1.5718,1.576,1.5775,1.578,1.5848,1.5792,1.5796,1.5798,1.58,1.5971,1.5973,0,0,0,0,0,0,1.5624,1.5633,1.5715,1.5718,1.5657,1.5692,1.5698,1.5718,1.5746,1.5749,1.572,1.5717,1.5769,1.5775,1.5782,1.5858,1.5796,1.58,1.5802,1.5968,1.5971,1.5973,0,0,0,0,0,0,1.5622,1.5632,1.5713,1.5675,1.5685,1.5696,1.5719,1.572,1.5735,1.5751,1.5753,1.5733,1.5768,1.5776,1.5828,1.5859,1.5802,1.5805,1.5966,1.5969,1.5972,1.601,0,0,0,0,0,0,1.5619,1.5631,1.5654,1.5676,1.5687,1.5757,1.5721,1.5723,1.5742,1.5738,1.5764,1.5766,1.5767,1.5822,1.5832,1.5864,1.5809,1.5963,1.5967,1.5971,1.6006,1.6014,1.6021,0,0,0,0,0,1.5615,1.5662,1.5655,1.5665,1.5716,1.5759,1.5766,1.5765,1.5744,1.5768,1.5778,1.5765,1.5855,1.5828,1.5838,1.5872,1.5961,1.5966,1.5971,1.6003,1.6013,1.6021,0,0,0,0,0,0,1.5643,1.5665,1.5657,1.5713,1.5734,1.5755,1.5785,1.5776,1.5804,1.58,1.5799,1.5805,1.5859,1.5871,1.584,1.5935,1.5905,1.5912,1.5925,1.5935,1.5942,1.5938,1.5812,0,0,0,0,0,1.5656,1.5689,1.5706,1.5754,1.5765,1.5773,1.5792,1.579,1.5812,1.5822,1.5836,1.5859,1.5892,1.5914,1.5946,1.6008,1.6014,1.6037,1.6044,1.605,1.6057,1.6093,1.6103,1.599,1.599,1.599,0,0,1.5683,1.5699,1.5719,1.576,1.5776,1.5811,1.5781,1.5818,1.5845,1.5827,1.5877,1.5889,1.5915,1.5973,1.5999,1.5984,1.609,1.6057,1.6061,1.6064,1.6099,1.6109,1.6119,1.5993,1.5992,1.5992,0,0,1.575,1.5765,1.5807,1.5824,1.5849,1.5855,1.5865,1.5888,1.5895,1.5945,1.5933,1.5965,1.6022,1.6042,1.6059,1.6136,1.6126,1.6147,1.6186,1.6221,1.623,1.6238,1.6267,1.6277,1.6153,1.6153,1.6153,0,1.578,1.5831,1.583,1.5869,1.5888,1.5874,1.5918,1.5935,1.597,1.5984,1.5967,1.604,1.6056,1.6119,1.6138,1.6152,1.6165,1.6143,1.6229,1.6237,1.6244,1.6272,1.6282,1.6155,1.6155,1.6155,1.6155,0,1.5868,1.5904,1.5935,1.5969,1.5992,1.6033,1.6039,1.6063,1.606,1.6068,1.612,1.6139,1.6176,1.619,1.6188,1.6254,1.6244,1.6228,1.6198,1.6257,1.6283,1.6294,1.6159,1.6158,1.6157,1.6157,0,0,1.5952,1.5986,1.5998,1.6014,1.6042,1.607,1.6112,1.6147,1.6168,1.6193,1.6229,1.6279,1.6265,1.6285,1.6285,1.6315,1.6377,1.6296,1.6296,1.6311,1.6454,1.6466,1.6478,1.6371,1.6373,1.6374,1.6452,0,1.6022,1.6094,1.6095,1.6162,1.6196,1.6185,1.6222,1.6244,1.6253,1.6284,1.6295,1.6331,1.6309,1.6321,1.6351,1.6363,1.6406,1.6358,1.6406,1.6407,1.64,1.6491,1.6504,1.6576,1.6462,1.6464,1.6465,0,1.6112,1.614,1.621,1.6235,1.625,1.6283,1.6316,1.6346,1.6372,1.6376,1.64,1.6396,1.644,1.6409,1.6471,1.6438,1.6458,1.6468,1.6471,1.6475,1.644,1.6499,1.6599,1.661,1.648,1.6479,1.6478,0,1.6168,1.6223,1.6273,1.6287,1.6317,1.6341,1.6355,1.6379,1.6401,1.643,1.6445,1.648,1.6499,1.6527,1.6533,1.6509,1.6596,1.6565,1.6603,1.6603,1.6621,1.662,1.6726,1.6634,1.6633,1.6633,1.6633,0,1.6245,1.6289,1.6299,1.6329,1.6379,1.6381,1.643,1.6443,1.6464,1.6499,1.6491,1.6524,1.6529,1.6564,1.6569,1.6621,1.663,1.6636,1.6637,1.6637,1.6636,1.665,1.6645,1.6636,1.6636,1.6635,1.6634,0,1.6315,1.6323,1.6377,1.6402,1.641,1.6445,1.6467,1.6497,1.6507,1.655,1.656,1.6575,1.6615,1.6624,1.6672,1.6676,1.6738,1.6734,1.6729,1.6729,1.6767,1.6763,1.6885,1.6902,1.6798,1.6799,1.68,0,1.6364,1.6397,1.6426,1.6449,1.6464,1.6499,1.6522,1.6526,1.655,1.6584,1.661,1.665,1.6681,1.6747,1.6763,1.68,1.6797,1.6837,1.6802,1.6802,1.6799,1.6797,1.6801,1.6844,1.6845,1.6846,1.6847,0,1.645,1.6453,1.6485,1.652,1.6547,1.6575,1.6601,1.662,1.6628,1.6656,1.6697,1.6721,1.6771,1.6811,1.6849,1.6865,1.6858,1.6858,1.6869,1.6869,1.6865,1.6869,1.6748,1.6855,1.6854,1.6853,1.6853,1.6853,1.6511,1.6541,1.6567,1.6604,1.6625,1.665,1.668,1.6694,1.6728,1.6768,1.6769,1.6814,1.6842,1.6892,1.691,1.6947,1.6934,1.695,1.6954,1.6958,1.6962,1.6859,1.6954,1.6954,1.6953,1.6953,1.6953,0,1.6598,1.6614,1.6648,1.6686,1.6716,1.6706,1.6736,1.6762,1.6801,1.6827,1.6859,1.6907,1.6947,1.6967,1.7006,1.7032,1.703,1.7042,1.704,1.7045,1.697,1.6957,1.7043,1.7043,1.7043,1.7043,1.7043,1.7043,1.6646,1.6697,1.6704,1.6766,1.6782,1.6826,1.6844,1.6868,1.6889,1.6943,1.6976,1.6988,1.7013,1.7054,1.7091,1.7096,1.7111,1.7125,1.7129,1.7059,1.705,1.7041,1.7029,1.7128,1.7128,1.72,1.7201,1.7202]},{"header":{"parameterUnit":"m.s-1","parameterCategory":1,"la1":30.2991,"la2":30.254,"lo1":-89.0895,"lo2":-89.0444,"dy":0.0017,"dx":0.0017,"nx":28,"ny":28,"refTime":"2025-11-22T09:00:00:Z","depth":0,"parameterNumber":3,"parameterNumberName":"V-component_of_WINDS"},"data":[0,0,0,0,0,0,0,0,0,0,0,0,0,0,0,0,0,0,0,0,0,0,0,0,0,0,0,0,0,0,0,0,0,0,0,0,0,0,0,0,0,0,0,0,0,0,0,0,0,0,0,0,0,0,0,0,0,0,0.8607,0.8607,0,0.8632,0.8632,0.8632,0.8655,0.8656,0.8656,0.8656,0.8679,0.8679,0.8679,0,0,0,0,0,0,0,0,0,0,0,0,0,0.8577,0.8577,0.8607,0.8607,0.8608,0.8632,0.8632,0.8632,0.8655,0.8656,0.8656,0.8656,0.8679,0.8679,0.868,0,0,0,0,0,0,0,0,0,0,0,0,0,0.8594,0.8577,0.8607,0.8622,0.8624,0.8631,0.8632,0.8632,0.8655,0.8656,0.8656,0.8656,0.8679,0.8679,0.868,0.8674,0,0,0.8681,0.8681,0,0,0,0,0,0,0,0,0.8593,0.8595,0.862,0.8621,0.8623,0.8641,0.863,0.8646,0.8655,0.8643,0.8656,0.8657,0.8666,0.8667,0.8671,0.8675,0.8676,0.8681,0.8681,0.8682,0.8682,0,0,0,0,0,0,0,0.8592,0.8594,0.8617,0.862,0.8622,0.8626,0.8629,0.8633,0.8651,0.8644,0.8646,0.8649,0.8667,0.867,0.8672,0.8676,0.8681,0.8682,0.8682,0.8682,0.8674,0.8674,0,0,0,0,0,0,0.8589,0.8593,0.8616,0.8617,0.8609,0.8627,0.863,0.8635,0.8652,0.8655,0.8648,0.865,0.8669,0.8671,0.8672,0.8665,0.8682,0.8682,0.8682,0.8675,0.8674,0.8674,0,0,0,0,0,0,0.8588,0.8591,0.8615,0.8606,0.8609,0.8627,0.8632,0.8635,0.8639,0.8655,0.8658,0.8649,0.867,0.8672,0.8673,0.8667,0.8682,0.8683,0.8675,0.8675,0.8674,0.8652,0,0,0,0,0,0,0.8587,0.859,0.8589,0.8606,0.861,0.8616,0.8631,0.8635,0.864,0.8642,0.8656,0.8659,0.867,0.8672,0.8673,0.8668,0.8683,0.8676,0.8675,0.8674,0.8654,0.8651,0.8649,0,0,0,0,0,0.8586,0.8582,0.8589,0.8592,0.8609,0.8616,0.8618,0.8632,0.8639,0.8637,0.8647,0.8658,0.8667,0.8672,0.8674,0.8668,0.8677,0.8675,0.8674,0.8655,0.8651,0.8649,0,0,0,0,0,0,0.8564,0.8585,0.8593,0.8594,0.8603,0.862,0.8618,0.8628,0.8635,0.8636,0.8652,0.8655,0.8654,0.8661,0.8666,0.8662,0.8673,0.8672,0.8658,0.8655,0.8652,0.865,0.8684,0,0,0,0,0,0.856,0.8565,0.8582,0.8581,0.8585,0.8601,0.8604,0.8614,0.8624,0.8628,0.8638,0.8646,0.865,0.8653,0.8658,0.8655,0.8657,0.8651,0.8649,0.8647,0.8645,0.8642,0.864,0.867,0.867,0.867,0,0,0.855,0.8562,0.8564,0.8577,0.8585,0.8588,0.8604,0.8607,0.8609,0.8628,0.863,0.8637,0.8647,0.8645,0.8645,0.8651,0.8637,0.8645,0.8643,0.8643,0.8641,0.8638,0.8635,0.8669,0.8669,0.867,0,0,0.8535,0.8545,0.8545,0.8552,0.8564,0.8574,0.8574,0.8589,0.8594,0.8597,0.861,0.8612,0.862,0.8626,0.863,0.8614,0.8624,0.8616,0.8602,0.8599,0.8596,0.8594,0.8587,0.8585,0.8614,0.8614,0.8614,0,0.8521,0.8528,0.8543,0.8545,0.855,0.8567,0.8566,0.8572,0.8585,0.8587,0.8594,0.8602,0.8611,0.861,0.8606,0.8609,0.8608,0.8614,0.8596,0.8594,0.8592,0.8586,0.8583,0.8613,0.8613,0.8614,0.8614,0,0.851,0.8514,0.8512,0.8524,0.8529,0.8529,0.8543,0.8546,0.8554,0.8563,0.8564,0.8574,0.8581,0.8581,0.859,0.8581,0.8584,0.8593,0.8604,0.8588,0.8582,0.858,0.8612,0.8612,0.8612,0.8613,0,0,0.8482,0.8502,0.8501,0.8505,0.8519,0.8522,0.8522,0.8529,0.853,0.8538,0.8538,0.8543,0.8551,0.8555,0.8565,0.8562,0.8547,0.8571,0.8571,0.8565,0.8536,0.8528,0.8526,0.8553,0.8553,0.8553,0.8535,0,0.8468,0.8471,0.8484,0.8482,0.8485,0.85,0.85,0.8508,0.8515,0.8518,0.8526,0.8529,0.854,0.8543,0.8541,0.8549,0.8541,0.8551,0.8552,0.8552,0.8549,0.8523,0.8516,0.8498,0.8533,0.8532,0.8532,0,0.8453,0.8459,0.8458,0.847,0.8471,0.8471,0.8478,0.848,0.8488,0.8494,0.8498,0.8509,0.8508,0.8519,0.8518,0.8524,0.8525,0.8529,0.8529,0.8529,0.8541,0.8521,0.8493,0.849,0.8529,0.8529,0.8529,0,0.8431,0.844,0.844,0.8443,0.8457,0.8457,0.8462,0.8471,0.8474,0.8479,0.848,0.8485,0.8487,0.849,0.8501,0.8508,0.8498,0.851,0.8501,0.8501,0.8498,0.8498,0.8469,0.85,0.85,0.85,0.85,0,0.8414,0.8412,0.843,0.843,0.8427,0.8441,0.8438,0.8445,0.8452,0.8453,0.8466,0.8466,0.848,0.8481,0.8489,0.8486,0.8487,0.8491,0.8493,0.8489,0.8489,0.849,0.8491,0.8499,0.85,0.85,0.85,0,0.839,0.8402,0.8402,0.8415,0.8418,0.8416,0.8426,0.8426,0.8434,0.8434,0.8435,0.8447,0.8449,0.846,0.8464,0.8469,0.8462,0.8467,0.846,0.8461,0.8452,0.8452,0.8421,0.8417,0.8452,0.8452,0.8451,0,0.8378,0.8377,0.8389,0.8391,0.8396,0.8398,0.84,0.8413,0.8415,0.8423,0.8421,0.8424,0.8427,0.8428,0.8437,0.844,0.8444,0.8433,0.8444,0.844,0.8442,0.8442,0.8441,0.843,0.843,0.843,0.8429,0,0.8355,0.836,0.8364,0.8369,0.8371,0.8376,0.8381,0.8381,0.8395,0.8396,0.8398,0.84,0.8404,0.8406,0.841,0.8414,0.8423,0.8426,0.8423,0.842,0.8415,0.8416,0.8452,0.8426,0.8427,0.8427,0.8427,0.8427,0.8336,0.8335,0.8343,0.8346,0.8351,0.8355,0.8355,0.8362,0.8364,0.8369,0.8376,0.8376,0.8382,0.8388,0.8392,0.8391,0.8397,0.8394,0.8394,0.8393,0.839,0.8415,0.8392,0.8392,0.8392,0.8393,0.8393,0,0.8313,0.8318,0.8321,0.8327,0.8329,0.8338,0.8343,0.8344,0.8344,0.8349,0.8351,0.8352,0.8354,0.8362,0.8364,0.8362,0.8366,0.8362,0.8362,0.8362,0.8386,0.8387,0.8359,0.8359,0.8359,0.8359,0.8359,0.8359,0.8301,0.8299,0.8305,0.8305,0.8311,0.8311,0.8313,0.8317,0.832,0.8321,0.8322,0.8328,0.8334,0.8336,0.8337,0.8339,0.8339,0.8333,0.8336,0.8358,0.8361,0.8364,0.8365,0.8333,0.8333,0.8313,0.8313,0.8313]}]]